AFL527 UWWW-UWKD

Flight info

Callsign AFL527
Flight time 0h 29m
Altitude 18000
Route DOGUR DCT TONSI
Aircraft A21N/M-SDE2E3FGHIRWXY/LB1

Departure

Time 2026-04-29 15:11
Airport Kurumoch International Airport (UWWW)

Arrival

Time 2026-04-29 15:40
Airport Kazan International Airport (UWKD)
Time Latitude Longitude Altitude Speed Heading
2026-04-29 14:51 53.51153 50.15883 423 ft 0 kts 331°
2026-04-29 15:00 53.51147 50.15889 423 ft 2 kts 331°
2026-04-29 15:00 53.51134 50.15901 423 ft 2 kts 331°
2026-04-29 15:01 53.51120 50.15913 423 ft 2 kts 342°
2026-04-29 15:01 53.51105 50.15916 423 ft 2 kts
2026-04-29 15:01 53.51091 50.15911 423 ft 2 kts 25°
2026-04-29 15:01 53.51078 50.15897 423 ft 2 kts 45°
2026-04-29 15:02 53.51072 50.15884 424 ft 0 kts 59°
2026-04-29 15:02 53.51069 50.15874 424 ft 0 kts 61°
2026-04-29 15:04 53.51075 50.15890 423 ft 3 kts 60°
2026-04-29 15:05 53.51094 50.15949 423 ft 6 kts 61°
2026-04-29 15:05 53.51120 50.16029 422 ft 9 kts 60°
2026-04-29 15:05 53.51153 50.16141 420 ft 12 kts 74°
2026-04-29 15:05 53.51123 50.16277 418 ft 13 kts 122°
2026-04-29 15:06 53.51071 50.16418 417 ft 14 kts 121°
2026-04-29 15:06 53.51013 50.16577 415 ft 17 kts 122°
2026-04-29 15:06 53.50945 50.16761 410 ft 19 kts 122°
2026-04-29 15:06 53.50865 50.16967 404 ft 22 kts 129°
2026-04-29 15:07 53.50734 50.17100 399 ft 19 kts 166°
2026-04-29 15:07 53.50619 50.17155 396 ft 17 kts 161°
2026-04-29 15:07 53.50497 50.17228 392 ft 19 kts 159°
2026-04-29 15:07 53.50369 50.17309 390 ft 19 kts 160°
2026-04-29 15:08 53.50237 50.17388 387 ft 20 kts 160°
2026-04-29 15:08 53.50100 50.17467 386 ft 21 kts 161°
2026-04-29 15:08 53.49962 50.17551 385 ft 20 kts 159°
2026-04-29 15:08 53.49827 50.17636 384 ft 20 kts 160°
2026-04-29 15:09 53.49694 50.17713 385 ft 19 kts 161°
2026-04-29 15:09 53.49567 50.17787 386 ft 18 kts 161°
2026-04-29 15:09 53.49449 50.17857 388 ft 17 kts 160°
2026-04-29 15:09 53.49344 50.17930 391 ft 15 kts 148°
2026-04-29 15:10 53.49285 50.18076 389 ft 16 kts 98°
2026-04-29 15:10 53.49318 50.18263 383 ft 17 kts 46°
2026-04-29 15:10 53.49422 50.18300 379 ft 14 kts 345°
2026-04-29 15:10 53.49533 50.18236 378 ft 30 kts 340°
2026-04-29 15:11 53.49991 50.17947 375 ft 111 kts 340°
2026-04-29 15:11 53.50945 50.17400 514 ft 166 kts 336°
2026-04-29 15:11 53.52031 50.16742 1219 ft 173 kts 333°
2026-04-29 15:11 53.53128 50.16061 2196 ft 169 kts 334°
2026-04-29 15:12 53.54221 50.15413 2725 ft 172 kts 334°
2026-04-29 15:12 53.54989 50.14949 2868 ft 187 kts 334°
2026-04-29 15:12 53.56728 50.13904 3282 ft 211 kts 335°
2026-04-29 15:12 53.58166 50.13048 3658 ft 228 kts 335°
2026-04-29 15:13 53.59721 50.12138 4047 ft 246 kts 339°
2026-04-29 15:13 53.61485 50.11608 4459 ft 268 kts 353°
2026-04-29 15:13 53.63373 50.11740 5133 ft 275 kts
2026-04-29 15:13 53.65276 50.12056 5888 ft 278 kts
2026-04-29 15:14 53.67197 50.12397 6602 ft 281 kts
2026-04-29 15:14 53.69125 50.12726 7311 ft 284 kts
2026-04-29 15:14 53.71096 50.13049 8036 ft 286 kts
2026-04-29 15:14 53.73085 50.13365 8757 ft 288 kts
2026-04-29 15:15 53.75079 50.13675 9445 ft 291 kts
2026-04-29 15:15 53.77077 50.13983 10115 ft 293 kts
2026-04-29 15:15 53.79139 50.14302 10597 ft 302 kts
2026-04-29 15:15 53.81282 50.14627 10923 ft 317 kts
2026-04-29 15:16 53.83517 50.14969 11216 ft 332 kts
2026-04-29 15:16 53.85859 50.15329 11499 ft 346 kts
2026-04-29 15:16 53.88283 50.15705 11804 ft 359 kts
2026-04-29 15:16 53.90794 50.16100 12327 ft 364 kts
2026-04-29 15:17 53.93299 50.16497 12914 ft 367 kts
2026-04-29 15:17 53.95839 50.16898 13486 ft 370 kts 360°
2026-04-29 15:17 53.98409 50.17297 14036 ft 374 kts 359°
2026-04-29 15:17 54.00997 50.17700 14569 ft 377 kts 359°
2026-04-29 15:18 54.03612 50.18111 15122 ft 380 kts 359°
2026-04-29 15:18 54.06273 50.18529 15683 ft 383 kts 359°
2026-04-29 15:18 54.08920 50.18944 16207 ft 387 kts 358°
2026-04-29 15:18 54.11581 50.19361 16726 ft 390 kts 358°
2026-04-29 15:19 54.14299 50.19902 17235 ft 395 kts
2026-04-29 15:19 54.17012 50.20787 17756 ft 401 kts
2026-04-29 15:19 54.19712 50.21999 18034 ft 405 kts
2026-04-29 15:19 54.22420 50.23353 18051 ft 405 kts 10°
2026-04-29 15:20 54.25081 50.24719 18054 ft 404 kts 10°
2026-04-29 15:20 54.27757 50.26085 18055 ft 404 kts 10°
2026-04-29 15:20 54.30460 50.27455 18050 ft 404 kts
2026-04-29 15:20 54.33152 50.28808 18067 ft 404 kts
2026-04-29 15:21 54.35829 50.30148 18060 ft 403 kts
2026-04-29 15:21 54.38544 50.31011 18032 ft 389 kts 352°
2026-04-29 15:21 54.41122 50.30240 18049 ft 370 kts 330°
2026-04-29 15:21 54.43339 50.28199 18072 ft 360 kts 319°
2026-04-29 15:22 54.45419 50.25914 18069 ft 359 kts 319°
2026-04-29 15:22 54.47496 50.23623 18053 ft 350 kts 319°
2026-04-29 15:22 54.49546 50.21370 18056 ft 357 kts 319°
2026-04-29 15:22 54.51651 50.19067 18059 ft 360 kts 319°
2026-04-29 15:23 54.53788 50.16750 18059 ft 361 kts 320°
2026-04-29 15:23 54.55908 50.14458 18059 ft 361 kts 320°
2026-04-29 15:23 54.58022 50.12177 18060 ft 362 kts 320°
2026-04-29 15:23 54.60141 50.09891 18050 ft 362 kts 320°
2026-04-29 15:24 54.62281 50.07582 18055 ft 361 kts 320°
2026-04-29 15:24 54.64409 50.05283 18051 ft 361 kts 320°
2026-04-29 15:24 54.66525 50.02995 18051 ft 361 kts 320°
2026-04-29 15:24 54.68642 50.00704 18063 ft 361 kts 320°
2026-04-29 15:25 54.70787 49.98377 18054 ft 362 kts 320°
2026-04-29 15:25 54.72910 49.96074 18050 ft 362 kts 320°
2026-04-29 15:25 54.75019 49.93783 18055 ft 362 kts 320°
2026-04-29 15:25 54.77151 49.91461 18057 ft 363 kts 320°
2026-04-29 15:26 54.79303 49.89115 18051 ft 363 kts 320°
2026-04-29 15:26 54.81407 49.86822 18044 ft 361 kts 320°
2026-04-29 15:26 54.83505 49.84545 18036 ft 345 kts 320°
2026-04-29 15:26 54.85468 49.82415 18041 ft 330 kts 320°
2026-04-29 15:27 54.87373 49.80339 18032 ft 317 kts 320°
2026-04-29 15:27 54.89218 49.78315 18039 ft 316 kts 320°
2026-04-29 15:27 54.91091 49.76249 18039 ft 316 kts 320°
2026-04-29 15:27 54.92928 49.74225 18039 ft 315 kts 320°
2026-04-29 15:28 54.94767 49.72198 18037 ft 314 kts 320°
2026-04-29 15:28 54.95990 49.70852 17953 ft 311 kts 320°
2026-04-29 15:28 54.98418 49.68180 17292 ft 308 kts 320°
2026-04-29 15:28 55.00225 49.66179 16370 ft 315 kts 321°
2026-04-29 15:29 55.02043 49.64155 15465 ft 318 kts 321°
2026-04-29 15:29 55.05720 49.60104 14112 ft 308 kts 322°
2026-04-29 15:30 55.09300 49.56145 12466 ft 309 kts 322°
2026-04-29 15:30 55.11118 49.54132 11624 ft 308 kts 323°
2026-04-29 15:30 55.12895 49.52174 10826 ft 307 kts 323°
2026-04-29 15:30 55.14690 49.50191 10015 ft 305 kts 323°
2026-04-29 15:31 55.16526 49.48436 9422 ft 302 kts 338°
2026-04-29 15:31 55.18590 49.48233 8911 ft 305 kts 10°
2026-04-29 15:31 55.20556 49.49562 8560 ft 303 kts 22°
2026-04-29 15:31 55.22428 49.51150 8250 ft 299 kts 23°
2026-04-29 15:32 55.24300 49.52716 7953 ft 295 kts 22°
2026-04-29 15:32 55.26139 49.54191 7663 ft 291 kts 21°
2026-04-29 15:32 55.27998 49.55633 7235 ft 294 kts 20°
2026-04-29 15:32 55.29863 49.57058 6760 ft 295 kts 20°
2026-04-29 15:33 55.31753 49.58498 6291 ft 295 kts 20°
2026-04-29 15:33 55.33615 49.59918 5830 ft 295 kts 21°
2026-04-29 15:33 55.35492 49.61355 5363 ft 295 kts 21°
2026-04-29 15:33 55.37389 49.62810 4893 ft 295 kts 21°
2026-04-29 15:34 55.39240 49.64231 4436 ft 295 kts 21°
2026-04-29 15:34 55.41163 49.65336 3946 ft 290 kts
2026-04-29 15:34 55.43086 49.64743 3468 ft 276 kts 328°
2026-04-29 15:34 55.44564 49.62796 3009 ft 262 kts 314°
2026-04-29 15:35 55.45874 49.60665 2585 ft 251 kts 314°
2026-04-29 15:35 55.47130 49.58732 2491 ft 238 kts 316°
2026-04-29 15:35 55.48414 49.56878 2485 ft 240 kts 318°
2026-04-29 15:35 55.49665 49.55094 2499 ft 217 kts 313°
2026-04-29 15:36 55.50625 49.53309 2603 ft 186 kts 306°
2026-04-29 15:36 55.51381 49.51644 2483 ft 163 kts 302°
2026-04-29 15:36 55.52010 49.50168 2428 ft 140 kts 301°
2026-04-29 15:36 55.52565 49.48786 2444 ft 138 kts 298°
2026-04-29 15:37 55.53104 49.47398 2457 ft 139 kts 298°
2026-04-29 15:37 55.53645 49.45995 2473 ft 136 kts 298°
2026-04-29 15:37 55.54174 49.44619 2390 ft 135 kts 298°
2026-04-29 15:37 55.54701 49.43247 2195 ft 135 kts 298°
2026-04-29 15:38 55.55238 49.41844 2012 ft 139 kts 297°
2026-04-29 15:38 55.55773 49.40449 1844 ft 137 kts 300°
2026-04-29 15:38 55.56303 49.39082 1640 ft 134 kts 300°
2026-04-29 15:38 55.56829 49.37715 1464 ft 134 kts 300°
2026-04-29 15:39 55.57350 49.36365 1285 ft 135 kts 300°
2026-04-29 15:39 55.57880 49.34989 1111 ft 135 kts 300°
2026-04-29 15:39 55.58418 49.33596 907 ft 139 kts 299°
2026-04-29 15:39 55.58963 49.32173 736 ft 141 kts 301°
2026-04-29 15:40 55.59523 49.30729 551 ft 139 kts 300°
2026-04-29 15:40 55.60052 49.29359 408 ft 127 kts 302°
2026-04-29 15:40 55.60386 49.28489 397 ft 42 kts 305°
2026-04-29 15:40 55.60431 49.28372 395 ft 9 kts 304°
2026-04-29 15:41 55.60498 49.28198 391 ft 18 kts 304°
2026-04-29 15:41 55.60575 49.28001 389 ft 19 kts 303°
2026-04-29 15:41 55.60659 49.27793 386 ft 24 kts 304°
2026-04-29 15:41 55.60818 49.27376 378 ft 44 kts 304°
2026-04-29 15:42 55.60934 49.27084 372 ft 21 kts 305°
2026-04-29 15:42 55.61023 49.26857 368 ft 23 kts 307°
2026-04-29 15:42 55.61141 49.26833 367 ft 5 kts 28°
2026-04-29 15:42 55.61142 49.26834 367 ft 0 kts 28°
2026-04-29 15:43 55.61144 49.26836 367 ft 1 kts 29°
2026-04-29 15:43 55.61201 49.26933 369 ft 18 kts 72°
2026-04-29 15:43 55.61141 49.27204 374 ft 30 kts 124°
2026-04-29 15:44 55.60997 49.27557 382 ft 40 kts 126°
2026-04-29 15:44 55.60854 49.27940 392 ft 29 kts 124°
2026-04-29 15:44 55.60764 49.28182 396 ft 17 kts 127°
2026-04-29 15:44 55.60693 49.28363 399 ft 20 kts 122°
2026-04-29 15:45 55.60605 49.28603 403 ft 23 kts 114°
2026-04-29 15:45 55.60582 49.28901 406 ft 26 kts 94°
2026-04-29 15:45 55.60621 49.29184 408 ft 23 kts 44°
2026-04-29 15:45 55.60743 49.29337 409 ft 23 kts 33°
2026-04-29 15:46 55.60810 49.29489 408 ft 17 kts 114°
2026-04-29 15:46 55.60738 49.29667 412 ft 18 kts 123°
2026-04-29 15:46 55.60677 49.29829 414 ft 8 kts 122°
2026-04-29 15:46 55.60685 49.29925 413 ft 9 kts 47°
2026-04-29 15:47 55.60715 49.29962 413 ft 0 kts 32°